This demonstration page uses our WeatherBlox Daily Observations layout. Learn more.

Left ArrowRight Arrow

44.31136, -96.79839

Hourly Observations for August 11, 2018

Temp ( °F °C ) Dew Point ( °F °C ) Humidity (%) Winds ( mph kmh ) Pressure ( in mb ) Visibility ( mi km ) Precip ( " mm )
12:56 am 00:56 Clear 70 21.1 67 19.4 90 90 S 10 17 30.04 1017 9 14 0.00 0.00
1:56 am 01:56 Clear 68 20 66 18.9 93 93 SE 6 9 30.05 1018 8 13 0.00 0.00
2:56 am 02:56 Clear 68 20 65 18.3 90 90 SE 7 11 30.04 1017 8 13 0.00 0.00
3:56 am 03:56 Clear 67 19.4 64 17.8 91 91 SSE 8 13 30.04 1017 8 13 0.00 0.00
4:56 am 04:56 Clear 66 18.9 64 17.8 93 93 ESE 9 15 30.03 1017 7 11 0.00 0.00
5:56 am 05:56 Clear 66 18.9 64 17.8 93 93 ESE 7 11 30.04 1017 7 11 0.00 0.00
6:56 am 06:56 Sunny with Mist and Fog 65 18.3 63 17.2 93 93 ESE 7 11 30.05 1018 6 10 0.00 0.00
7:56 am 07:56 Sunny 68 20 64 17.8 87 87 SSE 10 17 30.05 1018 7 11 0.00 0.00
8:56 am 08:56 Sunny 72 22.2 66 18.9 82 82 SE 9 15 N/A 7 11 0.00 0.00
9:56 am 09:56 Sunny 75 23.9 68 20 79 79 SSE 13 20 30.06 1018 8 13 0.00 0.00
10:56 am 10:56 Sunny 78 25.6 69 20.6 74 74 SSE 12 19 30.06 1018 8 13 0.00 0.00
11:56 am 11:56 Sunny 81 27.2 70 21.1 69 69 SSE 14 22 30.06 1018 9 14 0.00 0.00
12:56 pm 12:56 Sunny 83 28.3 72 22.2 70 70 SSE 10 17 30.05 1018 9 14 0.00 0.00
1:56 pm 13:56 Sunny 83 28.3 72 22.2 70 70 SE 13 20 30.06 1018 9 14 0.00 0.00
2:56 pm 14:56 Sunny 84 28.9 71 21.7 65 65 SSE 15 24 30.05 1018 9 14 0.00 0.00
3:56 pm 15:56 Sunny 84 28.9 72 22.2 67 67 SSE 14 22 30.04 1017 9 14 0.00 0.00
4:56 pm 16:56 Sunny 84 28.9 72 22.2 67 67 SE 15 24 30.04 1017 9 14 0.00 0.00
5:56 pm 17:56 Sunny 83 28.3 73 22.8 72 72 SSE 10 17 30.04 1017 9 14 0.00 0.00
6:56 pm 18:56 Sunny 82 27.8 73 22.8 74 74 SSE 13 20 30.03 1017 9 14 0.00 0.00
7:56 pm 19:56 Sunny 79 26.1 72 22.2 79 79 SSE 12 19 30.03 1017 9 14 0.00 0.00
8:56 pm 20:56 Clear 77 25 71 21.7 82 82 SE 12 19 30.04 1017 8 13 0.00 0.00
9:56 pm 21:56 Clear 75 23.9 70 21.1 84 84 SE 14 22 30.05 1018 10 16 0.00 0.00
10:56 pm 22:56 Clear 73 22.8 69 20.6 87 87 SSE 10 17 30.06 1018 10 16 0.00 0.00
11:56 pm 23:56 Clear 73 22.8 68 20 84 84 SSE 12 19 30.06 1018 10 16 0.00 0.00

Powered by AerisWeather